Darwin, CA

9:46 PM PDT on September 29, 2016 (GMT -0700)
China Lake NAWS

Weather History for KNID - May, 2014

Change the Weather History Date:

Friday, May 16, 2014

  Actual Average Record
Temperature  
Mean Temperature 80 °F -  
Max Temperature 100 °F 85 °F 100 °F (2006)
Min Temperature 61 °F 57 °F 42 °F (2011)
Cooling Degree Days 16    
Growing Degree Days 30 (Base 50)    
Moisture  
Dew Point 26 °F    
Average Humidity 14    
Maximum Humidity 26    
Minimum Humidity 7    
Precipitation  
Precipitation 0.00 in - - ()
Sea Level Pressure  
Sea Level Pressure 29.87 in    
Wind  
Wind Speed 6 mph (WSW)    
Max Wind Speed 22 mph    
Max Gust Speed 36 mph    
Visibility 10 miles    
Events      
Averages and records for this station are not official NWS values.
T = Trace of Precipitation, MM = Missing Value Source: NWS Daily Summary

Daily Weather History Graph

Daily Weather History Graph

Search for Another Location

Airport or City:

Trip Planner

Search our weather history database for the weather conditions in past years. The results will help you decide how hot, cold, wet, or windy it might be!

Date:

Astronomy

May. 16, 2014 Rise Set
Actual Time 5:44 AM PDT 7:49 PM PDT
Civil Twilight 5:16 AM PDT 8:18 PM PDT
Nautical Twilight 4:41 AM PDT 8:53 PM PDT
Astronomical Twilight 4:04 AM PDT 9:30 PM PDT
Moon 10:01 PM PDT (5/16) 7:31 AM PDT (5/16)
Length of Visible Light 15h 02m
Length of Day
14h 05m
Waning Gibbous, 95% of the Moon is Illuminated
May 16
Waning Gibbous
May 21
Last Quarter
May 28
New
Jun 5
First Quarter
Jun 12
Full

Hourly Weather History & Observations

Time (PDT) Temp. Dew Point Humidity Pressure Visibility Wind Dir Wind Speed Gust Speed Precip Events Conditions
12:56 AM 75.0 °F 27.0 °F 17% 29.95 in 10.0 mi SW 8.1 mph - N/A   Mostly Cloudy
1:56 AM 69.1 °F 26.1 °F 20% 29.94 in 10.0 mi NE 3.5 mph - N/A   Clear
2:56 AM 69.1 °F 26.1 °F 20% 29.94 in 10.0 mi SW 6.9 mph - N/A   Clear
3:56 AM 64.9 °F 26.1 °F 23% 29.94 in 10.0 mi Calm Calm - N/A   Clear
4:56 AM 66.0 °F 27.0 °F 23% 29.93 in 10.0 mi Calm Calm - N/A   Clear
5:56 AM 61.0 °F 26.1 °F 26% 29.95 in 10.0 mi West 3.5 mph - N/A   Mostly Cloudy
6:56 AM 66.9 °F 27.0 °F 22% 29.96 in 10.0 mi Calm Calm - N/A   Mostly Cloudy
7:56 AM 73.0 °F 28.0 °F 19% 29.96 in 10.0 mi Calm Calm - N/A   Mostly Cloudy
8:56 AM 79.0 °F 28.9 °F 16% 29.97 in 10.0 mi Calm Calm - N/A   Mostly Cloudy
9:56 AM 86.0 °F 30.0 °F 13% 29.95 in 10.0 mi Calm Calm - N/A   Mostly Cloudy
10:56 AM 90.0 °F 30.9 °F 12% 29.94 in 10.0 mi Calm Calm - N/A   Mostly Cloudy
11:56 AM 91.9 °F 30.0 °F 11% 29.92 in 10.0 mi NE 5.8 mph - N/A   Mostly Cloudy
12:56 PM 95.0 °F 28.9 °F 10% 29.89 in 10.0 mi North - - N/A   Mostly Cloudy
1:56 PM 98.1 °F 27.0 °F 8% 29.86 in 10.0 mi SE 8.1 mph - N/A   Overcast
2:56 PM 99.0 °F 27.0 °F 8% 29.82 in 10.0 mi Calm Calm - N/A   Overcast
3:56 PM 100.9 °F 26.1 °F 7% 29.79 in 10.0 mi West 15.0 mph 21.9 mph N/A   Overcast
4:56 PM 100.0 °F 24.1 °F 7% 29.78 in 10.0 mi WSW 12.7 mph 19.6 mph N/A   Overcast
5:56 PM 95.0 °F 21.9 °F 7% 29.76 in 10.0 mi WSW 19.6 mph - N/A   Overcast
6:56 PM 91.9 °F 26.1 °F 9% 29.75 in 10.0 mi SW 21.9 mph - N/A   Overcast
7:56 PM 88.0 °F 27.0 °F 11% 29.76 in 10.0 mi WSW 15.0 mph 31.1 mph N/A   Mostly Cloudy
8:56 PM 87.1 °F 27.0 °F 11% 29.76 in 10.0 mi WSW 18.4 mph 35.7 mph N/A   Mostly Cloudy
9:56 PM 84.0 °F 26.1 °F 12% 29.77 in 10.0 mi West 9.2 mph 20.7 mph N/A   Mostly Cloudy
10:56 PM 82.9 °F 21.9 °F 11% 29.77 in 10.0 mi WSW 11.5 mph - N/A   Mostly Cloudy
11:56 PM 82.9 °F 18.0 °F 9% 29.78 in 10.0 mi WSW 5.8 mph - N/A   Clear